COSMOS 1500

Last updated on Fri Jun 13 2025 00:02:14 GMT+0000 (Coordinated Universal Time)

1 14372U 83099A 25163.02008995 .12617911 -12821-5 17091-3 0 9995 2 14372 82.4518 299.7243 0012295 276.1066 202.9749 16.48578677282734
UTC large
Height (km)
Speed (km/s)
/
Latitude / Longitude
Inclination (degrees)
Orbital Period (minutes)
Azimuth
Elevation
Range (km)
Doppler Factor

Next 0 passes for location: London (51.5072 / 0.1276)

Sorry there are no passes over London.